Location: Azul
(36.7830°S, 59.8500°W)
Time: 15:00:46
(UTC-03:00)

ISS - Visible Passes

Search period start: 18 January 2020 00:00
Search period end: 28 January 2020 00:00
Orbit: 415 x 421 km, 51.6° (Epoch: 19 January)

Date Brightness Start Highest point End Pass type
(mag) Time Alt. Az. Time Alt. Az. Time Alt. Az.
25 Jan -2.2 05:01:25 12° N 05:04:00 29° NE 05:07:00 10° ESE visible
26 Jan -1.5 04:15:29 15° NE 04:16:05 16° NE 04:18:16 10° E visible
27 Jan -3.8 05:02:24 22° NW 05:04:27 82° SW 05:07:53 10° SE visible
